Skip Navigation Links
NOAA logo - Click to go to the NOAA homepage
NOAA's National Weather Service
Alaska Aviation Weather Unit
  NWS logo - Click to go to the NWS homepage
Left Navbar Graphic     17 AKDT = 01 GMT

   
NOAA is celebrating 200 years of science, service, and stewardship. Visit the NOAA 200th celebration Web site to learn more.
USA.gov is the U.S. Government's official Web portal to all Federal, state and local government Web resources and services.
Facebook
NWS on Facebook

Important Change Regarding the AAWU Web Presence

 

Over the last several months, the AAWU has been working to navigate its webpages to a nationally supported server. Security, as well as other needs, have necessitated the change.  In the process, we have made an effort to enhance the functionality of our website, as well as some of our products. As of June 27, 2017, aawu.arh.noaa.gov will be discontinued. The new AAWU web address is weather.gov/aawu. It is now live and will run in-parallel with the old site until it is discontinued. Please send any feedback or questions regarding the new webpages to nws.ar.aawu.webauthors@noaa.gov.  Thank you for your patience during this time of transition.
AAWU Home :: Display TAF Add Bookmark
METAR PATG 251956Z AUTO 17006KT 10SM OVC048 12/08 A2997 RMK AO2
 SLP244 T01170083=

METAR PATG 252156Z AUTO 16016KT 10SM OVC038 13/09 A2993 RMK AO2
 SLP228 T01280089=

METAR PATG 252256Z AUTO 16019KT 10SM OVC047 12/09 A2991 RMK AO2
 SLP223 T01220094=

SPECI PATG 260005Z AUTO 15016KT 10SM BKN008 10/09 A2991 RMK AO2=

SPECI PATG 260042Z AUTO 15014KT 10SM SCT006 SCT035 OVC070 11/08 A2990
     RMK AO2=


NOAA's National Weather Service
Alaska Aviation Weather Unit
6930 Sand Lake Road
Anchorage, AK 99502-1845
Disclaimer
Credits
Glossary
Privacy Policy
About Us
Career Opportunities
Contact AAWU Internet Services Site last modified: April, 17th 2012